Location: Garos
(43.5000°N, 0.4667°W)
Time: 03:56:22
(UTC+00:00)

Lacrosse 5 - Pass Details

Date: 03 February 2023
Orbit: 714 x 724 km, 57.0° (Epoch: 09 March)

Event Time Altitude Azimuth Distance (km) Brightness Sun altitude
Rises 18:24:12 0° 233° (SW) 3,123 6.4 -12.7°
Reaches altitude 10° 18:26:35 10° 235° (SW) 2,207 5.5 -13.2°
Maximum altitude 18:31:40 71° 320° (NW) 768 2.1 -14.1°
Enters shadow 18:35:50 16° 43° (NE) 1,865 3.6 -14.8°
